This demonstration page uses our WeatherBlox Daily Observations layout. Learn more.

Left ArrowRight Arrow

34.16533, -84.80231

Hourly Observations for October 21, 2021

Temp ( °F °C ) Dew Point ( °F °C ) Humidity (%) Winds ( mph kmh ) Pressure ( in mb ) Visibility ( mi km ) Precip ( " mm )
12:15 am 00:15 Partly Cloudy 61 16 59 15 94 94 N N/A 30.20 1023 8 13 N/A
12:35 am 00:35 Mostly Clear 59 15 59 15 100 100 N N/A 30.21 1023 8 13 N/A
12:55 am 00:55 Clear 59 15 59 15 100 100 N N/A 30.21 1023 8 13 N/A
1:15 am 01:15 Mostly Clear 59 15 59 15 100 100 N N/A 30.20 1023 8 13 N/A
1:35 am 01:35 Clear 59 15 59 15 100 100 N N/A 30.20 1023 7 11 N/A
1:55 am 01:55 Clear with Mist and Fog 59 15 57 14 94 94 N N/A 30.20 1023 6 10 N/A
2:15 am 02:15 Mostly Clear 57 14 57 14 100 100 N N/A 30.19 1022 7 11 N/A
2:35 am 02:35 Clear 57 14 57 14 100 100 N N/A 30.19 1022 7 11 N/A
2:55 am 02:55 Mostly Clear 57 14 57 14 100 100 N N/A 30.18 1022 8 13 N/A
3:15 am 03:15 Mostly Clear with Mist and Fog 57 14 57 14 100 100 N N/A 30.18 1022 6 10 N/A
3:35 am 03:35 Mostly Cloudy 57 14 55 13 94 94 N N/A 30.18 1022 8 13 N/A
3:55 am 03:55 Partly Cloudy 57 14 57 14 100 100 N N/A 30.18 1022 8 13 N/A
4:15 am 04:15 Mostly Cloudy 57 14 57 14 100 100 N N/A 30.17 1022 8 13 N/A
4:35 am 04:35 Cloudy 57 14 57 14 100 100 N N/A 30.16 1021 9 14 N/A
4:55 am 04:55 Cloudy 59 15 57 14 94 94 N N/A 30.17 1022 8 13 N/A
5:15 am 05:15 Cloudy 59 15 57 14 94 94 N N/A 30.17 1022 8 13 N/A
5:35 am 05:35 Cloudy 59 15 57 14 94 94 N N/A 30.17 1022 9 14 N/A
5:55 am 05:55 Cloudy 59 15 57 14 94 94 ENE 5 7 30.16 1021 9 14 N/A
6:15 am 06:15 Cloudy 59 15 57 14 94 94 N N/A 30.17 1022 9 14 N/A
6:35 am 06:35 Cloudy 59 15 57 14 94 94 E 3 6 30.17 1022 9 14 N/A
6:55 am 06:55 Cloudy 61 16 57 14 88 88 E 5 7 30.16 1021 10 16 N/A
7:15 am 07:15 Cloudy 61 16 57 14 88 88 N N/A 30.16 1021 10 16 N/A
7:35 am 07:35 Cloudy 61 16 59 15 94 94 N N/A 30.16 1021 9 14 N/A
7:55 am 07:55 Cloudy 61 16 59 15 94 94 N N/A 30.16 1021 10 16 N/A
8:15 am 08:15 Cloudy 61 16 59 15 94 94 N N/A 30.16 1021 9 14 N/A
8:35 am 08:35 Cloudy 61 16 59 15 94 94 N N/A 30.17 1022 8 13 N/A
8:55 am 08:55 Cloudy 61 16 59 15 94 94 N N/A 30.17 1022 8 13 0.01 0.25
9:15 am 09:15 Cloudy 61 16 59 15 94 94 N N/A 30.16 1021 8 13 N/A
9:35 am 09:35 Cloudy 63 17 59 15 88 88 E 3 6 30.16 1021 9 14 N/A
9:55 am 09:55 Cloudy 63 17 59 15 88 88 N N/A 30.16 1021 9 14 N/A
10:15 am 10:15 Cloudy 64 18 59 15 83 83 N N/A 30.17 1022 9 14 N/A
10:35 am 10:35 Cloudy 64 18 59 15 83 83 N N/A 30.17 1022 9 14 N/A
10:55 am 10:55 Cloudy 66 19 61 16 83 83 N N/A 30.16 1021 9 14 N/A
11:15 am 11:15 Cloudy 66 19 61 16 83 83 N N/A 30.15 1021 9 14 N/A
11:35 am 11:35 Cloudy 68 20 63 17 83 83 N N/A 30.16 1021 9 14 N/A
11:55 am 11:55 Mostly Cloudy 70 21 63 17 78 78 SSW 5 7 30.15 1021 9 14 N/A
12:15 pm 12:15 Cloudy 72 22 63 17 73 73 VRB 3 6 30.14 1021 10 16 N/A
12:35 pm 12:35 Cloudy 72 22 61 16 69 69 VRB 5 7 30.14 1021 10 16 N/A
12:55 pm 12:55 Cloudy 72 22 61 16 69 69 VRB 7 11 30.14 1021 9 14 N/A
1:15 pm 13:15 Cloudy 72 22 63 17 73 73 S 5 7 30.12 1020 10 16 N/A
1:35 pm 13:35 Cloudy 73 23 63 17 69 69 SSW 10 17 30.10 1019 10 16 N/A
1:55 pm 13:55 Mostly Cloudy 75 24 63 17 65 65 SSW 12 19 30.09 1019 10 16 N/A
2:15 pm 14:15 Mostly Cloudy 75 24 63 17 65 65 VRB 7 11 30.08 1019 10 16 N/A
2:35 pm 14:35 Cloudy 73 23 64 18 74 74 VRB 7 11 30.07 1018 10 16 N/A
2:55 pm 14:55 Cloudy 73 23 64 18 74 74 WSW 6 9 30.07 1018 10 16 N/A
3:15 pm 15:15 Cloudy 73 23 64 18 74 74 VRB 5 7 30.06 1018 10 16 N/A
3:35 pm 15:35 Cloudy 73 23 64 18 74 74 VRB 3 6 30.06 1018 10 16 N/A
3:55 pm 15:55 Cloudy 73 23 64 18 74 74 N N/A 30.06 1018 10 16 N/A
4:15 pm 16:15 Mostly Cloudy 75 24 64 18 69 69 SSW 6 9 30.05 1018 10 16 N/A
4:35 pm 16:35 Mostly Cloudy 75 24 64 18 69 69 VRB 3 6 30.05 1018 10 16 N/A
4:55 pm 16:55 Mostly Cloudy 75 24 64 18 69 69 N N/A 30.05 1018 10 16 N/A
5:15 pm 17:15 Mostly Cloudy 75 24 64 18 69 69 S 5 7 30.04 1017 10 16 N/A
5:35 pm 17:35 Partly Cloudy 75 24 64 18 69 69 S 7 11 30.03 1017 10 16 N/A
5:55 pm 17:55 Sunny 75 24 64 18 69 69 S 7 11 30.03 1017 10 16 N/A
6:15 pm 18:15 Sunny 73 23 64 18 74 74 S 6 9 30.02 1017 10 16 N/A
6:35 pm 18:35 Sunny 73 23 64 18 74 74 S 5 7 30.02 1017 10 16 N/A
6:55 pm 18:55 Sunny 72 22 66 19 83 83 N N/A 30.02 1016 10 16 N/A
7:15 pm 19:15 Clear 72 22 66 19 83 83 N N/A 30.02 1016 10 16 N/A
7:35 pm 19:35 Clear 70 21 66 19 88 88 N N/A 30.03 1017 10 16 N/A
7:55 pm 19:55 Mostly Clear 70 21 66 19 88 88 S 6 9 30.02 1017 10 16 N/A
8:15 pm 20:15 Clear 70 21 64 18 83 83 N N/A 30.03 1017 10 16 N/A
8:35 pm 20:35 Clear 68 20 64 18 88 88 N N/A 30.04 1017 10 16 N/A
8:55 pm 20:55 Clear with Nearby Thunderstorms 68 20 64 18 88 88 N N/A 30.05 1018 10 16 N/A
9:15 pm 21:15 Clear 68 20 64 18 88 88 N N/A 30.03 1017 10 16 N/A
9:35 pm 21:35 Mostly Clear with Nearby Thunderstorms 66 19 64 18 94 94 NE 3 6 30.03 1017 10 16 N/A
9:55 pm 21:55 Mostly Cloudy 66 19 64 18 94 94 N N/A 30.03 1017 9 14 N/A
10:15 pm 22:15 Cloudy with Nearby Thunderstorms 68 20 64 18 88 88 N N/A 30.03 1017 10 16 N/A
10:35 pm 22:35 Cloudy with Nearby Thunderstorms 68 20 64 18 88 88 VRB 5 7 30.05 1018 9 14 N/A
10:55 pm 22:55 Cloudy with Rain 68 20 64 18 88 88 N N/A 30.06 1018 3 5 0.02 0.51
11:15 pm 23:15 Mostly Cloudy with Light Rain 66 19 64 18 94 94 SSW 5 7 30.05 1018 6 10 N/A
11:35 pm 23:35 Mostly Cloudy 66 19 64 18 94 94 N N/A 30.05 1018 9 14 N/A
11:55 pm 23:55 Mostly Cloudy 66 19 64 18 94 94 N N/A 30.05 1018 9 14 0.08 2.03

Powered by AerisWeather